ARCTURUS

Last updated on Tue Sep 16 2025 00:02:51 GMT+0000 (Coordinated Universal Time)

1 56371U 23060B 25258.22333551 -.00000184 00000+0 00000+0 0 9991 2 56371 2.0620 83.4119 0000536 98.9049 230.4110 1.00271008 8696
UTC large
Height (km)
Speed (km/s)
/
Latitude / Longitude
Inclination (degrees)
Orbital Period (minutes)
Azimuth
Elevation
Range (km)
Doppler Factor

Next 0 passes for location: London (51.5072 / 0.1276)

Sorry there are no passes over London.